Hagerstown, MD

2:32 AM EST on November 17, 2019 (GMT -0500)
Hagerstown Regional-Henson

Weather History for KHGR - October, 2019

Change the Weather History Date:

Tuesday, October 22, 2019

  Actual Average Record
Temperature  
Mean Temperature 56 °F 53 °F  
Max Temperature 60 °F 63 °F 79 °F (2015)
Min Temperature 52 °F 42 °F 33 °F (1997)
Degree Days  
Heating Degree Days 9 12  
Month to date heating degree days 151 204  
Since 1 July heating degree days 152 278  
Cooling Degree Days 0 0  
Month to date cooling degree days 35 9  
Year to date cooling degree days 1473 968  
Growing Degree Days 6 (Base 50)    
Moisture  
Dew Point 54 °F    
Average Humidity 84    
Maximum Humidity 93    
Minimum Humidity 75    
Precipitation  
Precipitation 0.47 in 0.08 in 0.47 in (2019)
Month to date precipitation 1.64 2.19  
Year to date precipitation 30.49 32.49  
Sea Level Pressure  
Sea Level Pressure 29.91 in    
Wind  
Wind Speed 7 mph (SSE)    
Max Wind Speed 17 mph    
Max Gust Speed 23 mph    
Visibility 6 miles    
Events Fog , Rain    
T = Trace of Precipitation, MM = Missing Value Source: NWS Daily Summary

Daily Weather History Graph

Daily Weather History Graph

Search for Another Location

Airport or City:

Astronomy

Oct. 22, 2019 Rise Set
Actual Time 7:28 AM EDT 6:21 PM EDT
Civil Twilight 7:00 AM EDT 6:49 PM EDT
Nautical Twilight 6:29 AM EDT 7:20 PM EDT
Astronomical Twilight 5:58 AM EDT 7:52 PM EDT
Moon 12:37 AM EDT (10/22) 3:28 PM EDT (10/22)
Length of Visible Light 11h 48m
Length of Day
10h 53m
Last Quarter, 37% of the Moon is Illuminated
Oct 22
Last Quarter
Oct 27
New
Nov 4
First Quarter
Nov 12
Full
Nov 19
Last Quarter

Hourly Weather History & Observations

Time (EDT) Temp. Dew Point Humidity Pressure Visibility Wind Dir Wind Speed Gust Speed Precip Events Conditions
12:53 AM 59.0 °F 51.1 °F 75% 30.07 in 10.0 mi SSE 10.4 mph 19.6 mph N/A   Overcast
1:22 AM 59.0 °F 52.0 °F 78% 30.03 in 10.0 mi SSE 11.5 mph - N/A   Overcast
1:53 AM 57.9 °F 52.0 °F 81% 30.06 in 10.0 mi SSE 9.2 mph - N/A   Overcast
2:06 AM 57.9 °F 52.0 °F 81% 30.03 in 10.0 mi SSE 12.7 mph 18.4 mph N/A   Overcast
2:53 AM 57.9 °F 52.0 °F 81% 30.03 in 10.0 mi SE 10.4 mph - N/A   Overcast
3:29 AM 57.0 °F 52.0 °F 83% 29.99 in 10.0 mi SSE 13.8 mph 23.0 mph N/A   Overcast
3:53 AM 57.0 °F 53.1 °F 87% 30.01 in 9.0 mi SSE 12.7 mph - N/A   Overcast
4:53 AM 57.0 °F 53.1 °F 87% 30.00 in 10.0 mi South 12.7 mph - N/A   Overcast
5:53 AM 57.0 °F 53.1 °F 87% 29.99 in 9.0 mi SE 11.5 mph - N/A   Overcast
6:53 AM 57.0 °F 53.1 °F 87% 29.99 in 10.0 mi SSE 9.2 mph - N/A   Overcast
7:53 AM 57.0 °F 53.1 °F 87% 30.00 in 10.0 mi South 11.5 mph - N/A   Overcast
8:53 AM 57.0 °F 53.1 °F 87% 29.97 in 10.0 mi SE 12.7 mph - N/A   Overcast
9:18 AM 57.0 °F 53.1 °F 87% 29.93 in 10.0 mi SSE 12.7 mph - N/A   Overcast
9:53 AM 57.9 °F 53.1 °F 84% 29.96 in 10.0 mi South 10.4 mph - N/A   Overcast
10:05 AM 57.9 °F 54.0 °F 87% 29.94 in 10.0 mi South 6.9 mph - N/A   Overcast
10:53 AM 57.9 °F 54.0 °F 87% 29.94 in 10.0 mi SSE 15.0 mph - N/A   Overcast
11:53 AM 57.9 °F 54.0 °F 87% 29.91 in 8.0 mi SE 11.5 mph - N/A   Overcast
12:53 PM 59.0 °F 55.0 °F 87% 29.86 in 10.0 mi SE 10.4 mph - 0.00 in   Overcast
1:53 PM 59.0 °F 55.0 °F 87% 29.83 in 7.0 mi South 10.4 mph - 0.00 in Rain Light Rain
2:14 PM 59.0 °F 55.0 °F 87% 29.83 in 1.8 mi WSW 9.2 mph - 0.04 in Rain Light Rain
2:26 PM 57.9 °F 55.0 °F 90% 29.85 in 0.8 mi SW 9.2 mph - 0.16 in Rain Heavy Rain
2:38 PM 57.9 °F 55.9 °F 93% 29.84 in 1.8 mi South 8.1 mph - 0.21 in Rain Rain
2:46 PM 57.9 °F 55.9 °F 93% 29.83 in 2.0 mi South 8.1 mph - 0.23 in Rain Rain
2:53 PM 57.9 °F 55.9 °F 93% 29.86 in 2.0 mi South 4.6 mph - 0.25 in Rain Rain
3:44 PM 57.9 °F 55.9 °F 93% 29.83 in 2.0 mi Variable 4.6 mph - 0.11 in Rain Light Rain
3:53 PM 57.9 °F 55.9 °F 93% 29.88 in 3.0 mi SSW 5.8 mph - 0.12 in Rain Light Rain
4:53 PM 57.9 °F 55.9 °F 93% 29.83 in 5.0 mi ESE 6.9 mph - 0.05 in Rain Light Rain
5:29 PM 57.9 °F 55.9 °F 93% 29.80 in 9.0 mi ESE 4.6 mph - 0.04 in Rain Light Rain
5:53 PM 57.9 °F 55.9 °F 93% 29.83 in 10.0 mi Calm Calm - 0.04 in   Overcast
6:53 PM 57.0 °F 55.0 °F 93% 29.87 in 2.0 mi WNW 5.8 mph - 0.01 in   Overcast
7:00 PM 57.0 °F 55.0 °F 93% 29.85 in 3.0 mi West 8.1 mph - N/A   Overcast
7:53 PM 57.0 °F 55.0 °F 93% 29.89 in 10.0 mi Calm Calm - N/A   Mostly Cloudy
8:53 PM 54.0 °F 52.0 °F 93% 29.89 in 3.0 mi SSE 3.5 mph - N/A   Clear
9:00 PM 54.0 °F 52.0 °F 93% 29.86 in 1.5 mi SSE 3.5 mph - N/A   Clear
9:08 PM 53.1 °F 52.0 °F 96% 29.86 in 6.0 mi South 3.5 mph - N/A   Clear
9:53 PM 53.1 °F 51.1 °F 93% 29.90 in 0.5 mi Calm Calm - N/A Fog Fog
10:03 PM 53.1 °F 51.1 °F 93% 29.87 in 0.5 mi Calm Calm - N/A Fog Fog
10:21 PM 53.1 °F 51.1 °F 93% 29.87 in 0.2 mi Calm Calm - N/A Fog Fog
10:53 PM 53.1 °F 52.0 °F 96% 29.91 in 0.2 mi Calm Calm - N/A Fog Fog
11:31 PM 55.0 °F 53.1 °F 93% 29.87 in 0.2 mi Calm Calm - N/A Fog Fog
11:53 PM 55.0 °F 54.0 °F 96% 29.90 in 0.2 mi SW 4.6 mph - N/A Fog Fog